Wind_Speed
2 4 3 5 2 2 5 5 7 7 4 9 10 10 7 3 8 4 6 8 8 8 8 6 5 5 6 7 7 6 7 6 7 7 6 6 6 5 4 3 2 2 2 2 2 3 3 4 5
1 4 4 5 8 14 15 7 7 5 4 7 6 3 8 8 8 8 8 10 8 6 9 9 8 8 8 9 8 8 9 9 9 9 9 9 8 8 6 5 5 4 4 4 4 4 4 5 5
2 2 4 3 9 7 15 11 11 9 6 3 5 4 5 7 8 13 10 11 11 8 7 8 8 8 8 9 10 10 11 11 11 12 11 11 12 11 10 9 8 7 7 6 6 6 6 6 6
2 5 4 6 7 10 8 7 10 6 6 2 6 5 2 3 9 12 10 10 14 14 6 7 7 8 8 9 9 10 10 12 13 13 13 13 14 14 14 13 12 10 10 10 9 8 8 9 8
3 7 6 4 14 8 5 8 7 5 2 1 4 6 4 1 9 9 7 9 8 15 18 10 9 9 10 10 11 12 13 13 13 13 14 14 15 16 17 15 15 14 13 13 12 12 11 11 11
5 8 8 8 12 7 5 6 3 5 3 4 10 2 2 5 6 7 4 5 10 14 13 12 12 14 13 14 15 15 16 16 15 14 14 15 16 17 18 18 18 18 17 17 16 15 15 14 13
3 9 8 10 9 6 1 1 4 4 3 5 2 2 1 2 3 9 15 18 21 22 20 18 17 13 12 13 15 15 15 15 16 16 17 17 18 19 19 20 21 20 19 19 19 18 18 17 17
8 6 5 6 7 3 3 9 3 6 7 10 5 7 9 9 11 17 15 18 20 21 20 16 19 19 16 15 14 15 16 18 19 20 20 21 21 21 22 23 23 23 22 21 21 21 21 20 19
10 5 6 4 4 5 4 6 4 4 7 13 13 10 12 13 18 19 19 17 19 20 21 20 21 23 23 23 22 20 20 21 22 24 25 26 26 26 25 25 26 26 26 25 25 23 22 22 22
6 3 0 3 3 6 7 5 4 8 10 14 17 17 17 18 19 18 17 18 20 22 24 25 26 25 26 27 26 27 27 28 29 29 29 30 30 30 29 29 28 28 29 27 26 25 24 25 23
4 3 2 2 2 3 5 5 10 8 14 18 19 21 23 18 16 17 18 21 22 23 24 27 27 27 28 29 29 31 33 34 35 37 37 37 36 34 32 31 30 30 30 28 27 25 29 26 25
5 4 2 4 4 6 6 5 9 10 12 13 16 18 20 21 19 21 23 27 30 32 32 32 33 34 35 36 37 37 38 39 40 41 42 43 43 43 40 37 35 34 33 30 26 35 28 29 34
6 7 8 6 8 16 11 11 10 13 13 16 19 20 21 25 24 27 29 33 37 38 40 39 41 41 41 43 42 42 41 41 39 40 42 43 44 45 46 44 41 38 37 36 33 30 30 29 24
8 10 11 14 18 22 16 9 10 14 16 19 26 27 28 29 30 31 33 35 38 42 43 40 39 38 36 36 37 35 34 35 38 38 38 40 43 44 44 45 44 41 38 37 34 31 30 26 25
12 10 9 12 16 19 17 12 8 9 12 21 25 28 32 37 40 42 40 41 39 38 37 32 30 30 31 31 31 32 33 34 36 37 36 39 41 44 43 43 44 44 43 39 36 33 30 30 30
6 2 1 12 17 23 26 9 7 7 8 16 26 31 36 40 43 45 44 36 30 30 31 31 29 29 31 33 33 34 36 39 40 40 38 39 41 43 42 44 45 44 46 45 41 36 34 32 31
3 11 10 11 16 18 24 29 25 15 22 24 29 30 29 30 29 31 31 29 28 28 32 35 35 36 38 43 45 46 46 47 47 49 50 49 46 43 45 45 46 46 45 44 46 44 39 37 35
7 12 14 15 18 27 29 31 21 12 18 25 29 31 30 27 22 15 17 20 20 27 35 39 43 49 51 56 56 55 55 54 54 50 47 46 47 46 47 45 44 43 44 44 45 45 44 41 38
14 15 17 24 20 31 30 21 23 20 18 20 23 25 21 17 14 15 17 20 25 31 36 41 50 55 57 54 53 52 48 46 46 41 40 39 41 41 39 42 44 42 43 43 42 43 44 43 40
17 14 20 25 30 26 20 26 11 8 10 18 19 19 20 19 18 20 22 26 32 38 43 44 45 45 44 42 41 39 38 38 37 36 35 33 33 37 38 37 38 39 42 43 43 41 42 45 43
23 18 28 34 32 10 16 6 6 14 8 12 12 11 13 17 21 24 29 34 40 46 43 35 30 32 37 41 41 38 38 34 33 32 31 29 29 30 33 35 35 37 36 40 42 41 40 43 42
24 27 33 28 24 7 20 7 9 1 6 5 7 14 20 25 31 35 37 41 42 35 30 25 22 28 30 32 35 37 40 40 43 32 32 31 26 27 27 29 32 33 36 38 40 42 41 38 42
23 34 36 20 18 13 9 4 2 5 1 10 20 27 30 34 34 35 38 39 39 34 28 28 28 29 31 32 34 36 41 42 43 40 37 34 29 25 26 27 27 30 34 36 38 39 44 41 38
30 31 12 10 6 4 8 18 4 9 21 24 23 24 27 28 32 36 38 37 37 31 25 26 28 32 35 32 33 37 38 42 43 43 42 37 28 24 24 25 27 28 32 34 36 37 37 43 41
20 33 13 6 4 4 15 20 7 8 17 32 33 35 32 31 31 31 30 30 36 33 30 30 34 37 39 39 38 36 38 39 42 43 42 38 31 26 25 25 26 26 28 31 35 37 36 39 43
19 20 6 5 4 20 29 4 10 8 29 31 34 29 32 28 26 28 28 29 32 33 32 36 39 40 40 41 38 34 35 40 42 38 34 35 32 30 27 27 27 26 25 28 31 35 36 38 39
15 14 8 9 12 10 8 5 18 37 40 36 44 42 39 33 27 29 30 34 36 32 32 38 43 41 40 39 39 38 35 36 35 28 30 30 29 28 27 28 29 25 23 24 27 32 33 37 38
12 12 8 5 5 6 13 26 15 41 36 42 51 45 46 39 39 29 35 36 32 36 38 39 40 41 41 40 38 38 36 35 30 29 29 28 28 27 28 30 30 28 24 24 27 29 31 37 35
11 10 9 12 13 4 5 11 37 25 40 44 45 44 43 39 33 36 32 28 26 34 39 41 40 40 40 40 38 36 32 30 28 31 31 31 30 29 31 32 33 31 28 28 28 28 28 32 32
14 28 20 15 9 23 25 31 14 36 40 46 47 39 34 36 39 38 32 35 34 38 40 39 40 40 39 39 38 37 33 34 36 36 34 34 33 30 31 32 32 32 32 27 26 26 26 30 29
Wind_Direction
110 113 158 166 151 330 356 79 147 145 96 59 59 17 48 37 352 15 353 335 5 10 1 348 327 295 285 280 278 286 293 300 307 309 310 322 328 324 329 330 333 341 314 305 310 307 307 313 316
132 111 164 150 62 54 78 110 113 92 96 84 87 27 340 34 2 336 335 319 338 344 340 332 325 312 298 283 283 288 294 295 297 299 301 303 301 303 309 308 306 302 306 310 309 309 305 303 309
186 137 123 112 52 53 92 82 48 23 52 105 125 291 344 55 351 325 318 304 298 300 308 324 321 316 308 302 297 297 295 293 291 292 290 291 293 294 294 294 294 296 291 291 294 295 299 303 304
164 159 116 88 84 79 99 92 78 103 100 14 27 103 140 298 324 327 313 316 317 306 279 293 296 300 304 302 302 298 296 292 290 287 286 285 286 287 285 280 275 281 284 282 282 284 289 292 298
136 123 121 72 102 95 82 117 78 106 118 347 29 97 282 355 337 322 290 316 294 302 317 314 308 304 302 300 296 294 291 289 284 282 282 282 281 282 284 279 276 276 278 280 282 282 283 286 290
154 126 68 96 113 106 95 117 158 108 110 163 10 85 27 48 346 350 340 290 270 282 295 314 303 302 295 292 288 287 286 284 283 281 281 282 281 282 283 283 280 282 280 280 279 282 282 281 283
144 117 71 104 149 172 63 248 189 228 269 206 257 328 187 176 299 290 291 288 288 285 297 291 292 293 295 293 293 291 287 282 282 281 283 283 284 282 281 280 280 280 281 277 274 276 279 280 282
118 122 149 68 65 76 325 292 236 263 287 281 259 243 251 255 275 280 269 269 278 288 299 306 304 299 291 282 273 274 275 276 278 277 278 278 277 278 279 277 277 276 274 273 273 273 273 274 276
132 92 118 141 253 247 299 280 318 153 262 287 297 259 261 274 278 278 279 274 281 284 286 283 291 291 288 283 275 271 267 268 268 270 272 273 275 273 270 272 274 275 272 270 267 266 269 272 272
150 85 162 284 281 264 291 283 274 197 224 258 276 282 280 279 276 281 283 279 272 272 272 279 280 277 276 276 278 279 275 271 266 262 262 266 268 270 273 270 270 271 269 266 264 264 264 264 271
91 47 17 19 353 305 294 287 285 264 245 253 265 272 281 285 282 276 274 273 270 269 267 268 268 268 268 271 273 273 272 272 270 271 270 267 264 264 267 268 267 263 263 257 259 260 269 262 270
66 49 348 350 358 349 323 313 293 291 294 297 289 287 288 290 289 286 282 282 282 280 277 275 274 274 275 276 276 276 275 273 269 266 264 264 264 264 262 261 263 263 259 255 255 255 268 246 265
24 24 21 31 6 353 340 326 304 304 309 304 295 292 289 289 288 286 284 282 282 282 281 280 279 276 276 276 276 278 278 274 269 266 265 265 262 260 260 260 260 258 257 258 259 257 258 273 244
32 55 18 12 345 347 355 326 305 318 322 302 298 301 299 296 292 291 285 282 281 283 282 284 282 282 283 281 281 281 279 277 273 270 268 264 264 261 258 258 257 255 256 258 256 257 260 251 247
54 36 351 357 325 328 342 334 326 319 317 299 297 287 288 293 295 296 295 293 289 285 284 283 285 287 287 286 287 288 290 287 281 278 274 270 266 263 258 256 255 252 252 251 256 257 252 245 242
97 54 334 316 317 324 337 343 1 303 294 284 286 287 289 294 296 296 295 294 290 287 285 287 291 295 295 294 295 295 294 293 291 289 284 280 273 267 263 257 255 253 251 251 251 250 253 254 248
263 314 343 335 316 312 307 308 315 299 259 281 295 291 286 288 291 294 303 309 302 294 292 295 298 299 304 308 305 300 301 298 294 294 291 284 279 275 270 262 256 255 252 253 253 252 249 247 251
354 346 339 331 320 316 318 314 323 314 271 276 279 276 278 283 288 312 325 327 326 315 315 317 315 314 310 311 309 305 302 301 298 293 286 280 278 276 272 267 264 260 257 252 251 252 249 247 244
349 332 321 338 321 315 325 316 319 303 275 269 267 261 257 253 261 278 293 304 303 309 313 318 322 315 308 302 299 300 305 305 299 294 288 277 274 276 275 271 265 260 259 255 251 249 248 248 247
344 338 337 336 326 319 327 336 357 342 284 261 258 255 256 260 276 286 291 300 309 316 319 314 312 312 315 313 309 308 304 301 300 297 295 294 285 272 272 272 268 262 256 254 253 251 248 245 245
352 345 334 327 325 343 325 347 38 333 253 260 259 267 277 300 313 315 315 319 318 319 318 319 313 308 308 309 310 311 317 307 301 299 295 291 291 285 273 267 269 267 263 255 249 248 248 246 241
349 335 333 329 325 334 346 293 327 95 235 235 279 294 301 306 314 317 322 328 332 322 322 326 306 307 312 314 319 310 310 314 317 316 307 298 297 292 285 276 267 262 260 257 253 244 243 244 243
334 335 338 326 309 307 354 323 172 195 32 313 322 325 325 327 329 327 328 329 330 323 320 320 321 319 315 312 312 316 308 312 313 314 316 312 293 286 283 277 268 261 257 255 254 252 243 239 242
335 337 341 312 297 159 359 350 334 45 21 357 346 349 342 334 327 326 324 322 324 321 316 319 321 323 324 319 307 305 304 304 305 309 308 313 301 286 286 283 275 264 256 253 251 252 248 241 236
354 360 348 3 355 255 305 328 103 71 358 354 347 340 336 330 325 321 322 324 324 321 320 321 324 326 325 319 311 300 297 300 302 301 303 305 305 300 296 288 284 274 261 252 249 246 247 240 238
11 19 40 307 322 300 320 186 147 312 331 355 354 341 339 332 332 327 324 322 320 325 327 322 323 323 323 321 323 315 310 306 305 303 297 299 303 299 298 293 288 283 267 256 247 246 247 241 234
347 16 344 281 291 286 283 179 263 303 318 330 333 329 339 335 332 326 323 324 326 324 317 317 320 322 322 320 320 318 315 311 311 306 301 303 303 301 296 292 289 287 277 264 251 247 248 241 230
358 360 335 350 319 305 287 308 311 326 328 325 324 326 325 318 316 320 321 320 327 322 318 320 322 323 321 319 319 316 315 313 312 307 308 310 306 303 296 289 292 292 278 263 255 250 244 235 226
335 8 351 314 294 286 301 299 315 327 326 331 329 328 325 327 324 327 319 311 312 307 316 323 323 321 318 317 316 317 315 316 318 315 310 306 305 303 294 292 291 293 289 274 257 245 239 230 222
348 343 347 329 298 292 282 297 300 321 328 328 335 336 333 331 318 323 308 305 310 314 319 324 323 319 316 315 317 317 310 307 310 310 305 302 303 302 301 301 302 296 290 269 247 235 230 221 217
Height
3170 3171 3172 3172 3176 3174 3173 3176 3174 3173 3175 3177 3177 3172 3172 3173 3174 3177 3174 3174 3175 3174 3174 3173 3173 3172 3172 3172 3171 3170 3170 3168 3168 3167 3166 3164 3163 3163 3162 3160 3159 3158 3158 3157 3156 3155 3155 3154 3153
3170 3170 3172 3171 3174 3172 3174 3175 3174 3175 3175 3177 3178 3174 3171 3173 3175 3175 3173 3172 3174 3174 3173 3173 3172 3171 3171 3171 3170 3169 3168 3168 3167 3166 3165 3164 3163 3162 3161 3160 3159 3158 3157 3156 3155 3154 3154 3154 3152
3169 3170 3172 3171 3173 3173 3175 3176 3175 3175 3175 3176 3175 3175 3174 3173 3173 3174 3173 3171 3172 3173 3173 3171 3171 3170 3169 3169 3168 3167 3166 3166 3165 3164 3164 3162 3161 3160 3159 3158 3158 3157 3156 3155 3154 3154 3153 3153 3151
3170 3172 3173 3173 3175 3176 3175 3176 3176 3176 3176 3174 3173 3173 3175 3175 3175 3174 3172 3169 3167 3169 3171 3170 3169 3168 3167 3166 3166 3165 3165 3164 3163 3162 3161 3160 3160 3158 3158 3157 3156 3156 3155 3155 3154 3153 3152 3152 3150
3170 3171 3172 3173 3175 3175 3174 3176 3176 3175 3176 3173 3173 3174 3174 3176 3175 3174 3171 3169 3169 3167 3166 3167 3167 3166 3165 3165 3164 3163 3162 3161 3160 3159 3158 3158 3157 3156 3155 3154 3154 3153 3153 3153 3152 3152 3151 3150 3149
3169 3170 3172 3173 3173 3174 3173 3175 3175 3175 3177 3177 3172 3174 3174 3175 3174 3172 3170 3168 3168 3167 3166 3166 3164 3163 3162 3162 3161 3160 3159 3158 3157 3156 3155 3155 3154 3153 3152 3151 3151 3151 3151 3151 3150 3149 3149 3148 3147
3169 3170 3173 3174 3173 3173 3174 3176 3176 3175 3174 3176 3174 3173 3173 3174 3175 3171 3168 3166 3164 3162 3163 3162 3161 3161 3160 3159 3157 3156 3155 3155 3154 3153 3152 3151 3150 3149 3148 3148 3148 3148 3147 3147 3147 3146 3146 3146 3145
3169 3171 3171 3172 3173 3173 3174 3174 3175 3174 3173 3172 3174 3171 3172 3171 3169 3168 3166 3164 3162 3160 3160 3159 3157 3156 3156 3154 3153 3152 3151 3151 3150 3149 3148 3147 3146 3145 3145 3144 3144 3143 3142 3143 3142 3142 3142 3142 3142
3169 3171 3171 3172 3173 3172 3174 3173 3173 3173 3171 3170 3171 3171 3171 3169 3166 3164 3163 3162 3160 3159 3157 3156 3155 3153 3151 3149 3149 3148 3147 3145 3145 3144 3143 3141 3141 3140 3139 3139 3138 3138 3138 3137 3137 3137 3138 3138 3137
3169 3171 3171 3172 3172 3172 3172 3172 3171 3172 3169 3168 3167 3167 3166 3166 3163 3161 3159 3158 3156 3154 3153 3151 3149 3147 3145 3145 3145 3144 3143 3141 3139 3137 3136 3135 3134 3134 3132 3132 3132 3132 3132 3131 3131 3131 3132 3131 3132
3170 3171 3171 3172 3171 3171 3170 3170 3168 3169 3168 3167 3166 3164 3161 3162 3159 3157 3154 3152 3152 3150 3149 3146 3144 3142 3139 3138 3137 3136 3134 3134 3133 3132 3131 3129 3127 3127 3126 3126 3125 3125 3125 3125 3124 3125 3125 3126 3125
3170 3171 3170 3170 3170 3170 3169 3168 3167 3166 3166 3164 3162 3160 3157 3156 3156 3154 3152 3148 3145 3143 3142 3140 3138 3137 3135 3133 3131 3130 3128 3126 3125 3123 3122 3120 3119 3119 3118 3117 3117 3116 3116 3117 3116 3119 3118 3120 3121
3170 3170 3170 3170 3169 3169 3167 3165 3163 3161 3162 3160 3157 3156 3154 3151 3150 3148 3145 3141 3136 3133 3130 3131 3128 3127 3125 3122 3119 3118 3116 3115 3113 3113 3112 3110 3109 3109 3108 3108 3108 3107 3107 3108 3109 3111 3111 3112 3111
3171 3171 3169 3168 3165 3165 3164 3162 3160 3159 3158 3156 3151 3149 3146 3144 3143 3141 3138 3134 3130 3125 3121 3119 3116 3115 3113 3111 3109 3108 3106 3105 3103 3103 3102 3100 3098 3098 3099 3100 3099 3099 3098 3098 3099 3102 3103 3104 3105
3171 3170 3168 3167 3165 3164 3163 3160 3158 3157 3157 3151 3146 3143 3140 3138 3135 3132 3130 3126 3123 3117 3113 3110 3108 3107 3106 3104 3102 3099 3097 3096 3093 3093 3092 3090 3088 3087 3089 3090 3090 3090 3090 3089 3089 3092 3095 3096 3098
3169 3169 3167 3166 3163 3161 3160 3160 3159 3157 3154 3150 3144 3139 3134 3130 3126 3120 3117 3116 3114 3109 3106 3104 3102 3100 3098 3096 3094 3092 3090 3087 3085 3083 3082 3080 3078 3076 3076 3076 3077 3079 3080 3081 3083 3083 3085 3087 3088
3169 3168 3167 3165 3163 3159 3158 3155 3156 3154 3150 3146 3142 3137 3131 3126 3120 3116 3113 3108 3106 3103 3100 3099 3099 3095 3091 3088 3086 3083 3080 3078 3076 3073 3069 3069 3067 3066 3064 3064 3065 3067 3068 3070 3072 3075 3076 3078 3081
3168 3165 3163 3161 3159 3154 3150 3148 3146 3145 3144 3143 3138 3134 3129 3123 3118 3114 3111 3106 3103 3098 3096 3093 3090 3086 3083 3080 3076 3072 3069 3066 3063 3060 3058 3055 3053 3052 3051 3052 3053 3054 3055 3058 3061 3062 3065 3068 3070
3166 3163 3161 3159 3155 3146 3144 3140 3138 3136 3135 3132 3130 3125 3121 3119 3116 3111 3106 3102 3099 3097 3092 3086 3081 3078 3077 3074 3068 3063 3056 3053 3050 3046 3045 3043 3041 3039 3039 3037 3038 3041 3042 3044 3049 3051 3053 3057 3061
3165 3162 3159 3155 3150 3144 3140 3135 3133 3132 3131 3127 3123 3120 3117 3112 3109 3105 3102 3098 3096 3093 3088 3083 3077 3071 3064 3060 3057 3053 3050 3047 3042 3038 3034 3032 3031 3029 3027 3025 3024 3026 3027 3030 3034 3037 3040 3045 3050
3163 3159 3155 3151 3143 3143 3139 3137 3136 3134 3129 3126 3121 3118 3114 3110 3106 3104 3101 3098 3093 3086 3080 3074 3069 3065 3059 3053 3049 3044 3040 3038 3034 3030 3026 3023 3020 3019 3017 3015 3013 3013 3014 3017 3021 3024 3026 3031 3038
3159 3158 3152 3145 3141 3142 3141 3137 3134 3131 3125 3121 3118 3116 3112 3108 3104 3101 3096 3091 3085 3078 3072 3067 3064 3059 3053 3047 3043 3038 3032 3026 3023 3020 3015 3013 3011 3007 3006 3003 3003 3002 3002 3004 3006 3010 3014 3017 3023
3159 3151 3145 3140 3138 3138 3140 3138 3134 3129 3126 3123 3120 3115 3110 3105 3100 3095 3090 3085 3079 3074 3067 3063 3057 3052 3046 3042 3036 3031 3026 3021 3015 3011 3006 3003 3000 2998 2996 2993 2993 2993 2992 2992 2995 2998 3002 3007 3010
3154 3148 3140 3136 3136 3136 3135 3137 3133 3131 3131 3125 3119 3114 3109 3103 3098 3092 3087 3082 3075 3069 3064 3058 3052 3047 3041 3036 3031 3026 3021 3015 3008 3004 2999 2994 2990 2988 2987 2984 2983 2981 2982 2982 2984 2986 2990 2995 2998
3154 3146 3139 3138 3138 3136 3133 3133 3133 3130 3125 3120 3113 3108 3104 3099 3094 3088 3082 3076 3070 3063 3057 3052 3047 3042 3035 3029 3024 3019 3014 3008 3002 2996 2990 2985 2981 2979 2978 2976 2974 2972 2971 2972 2973 2974 2977 2982 2987
3157 3155 3160 3159 3151 3139 3132 3131 3131 3127 3123 3117 3111 3107 3102 3096 3090 3084 3078 3071 3065 3057 3052 3047 3041 3035 3029 3022 3016 3011 3006 3000 2993 2987 2982 2977 2974 2971 2969 2967 2965 2962 2961 2961 2962 2964 2966 2970 2976
3159 3158 3158 3154 3147 3140 3129 3126 3121 3120 3111 3107 3104 3099 3094 3089 3082 3078 3072 3065 3059 3053 3047 3042 3035 3029 3022 3015 3009 3003 2998 2991 2985 2979 2975 2971 2967 2963 2960 2958 2956 2953 2951 2951 2952 2954 2957 2959 2966
3157 3157 3155 3155 3151 3144 3125 3123 3120 3112 3108 3104 3097 3093 3089 3082 3076 3072 3067 3060 3053 3048 3042 3036 3029 3022 3015 3008 3002 2995 2989 2983 2978 2973 2968 2964 2960 2955 2952 2949 2947 2944 2943 2942 2943 2944 2946 2948 2956
3157 3155 3156 3156 3152 3144 3132 3123 3126 3116 3110 3101 3096 3090 3083 3077 3071 3066 3060 3054 3046 3040 3035 3028 3022 3014 3007 3000 2994 2987 2981 2976 2971 2965 2960 2955 2951 2947 2944 2941 2937 2935 2933 2932 2932 2934 2936 2941 2948
3157 3157 3153 3151 3148 3144 3137 3122 3117 3112 3107 3102 3093 3084 3078 3072 3066 3060 3053 3047 3041 3035 3028 3021 3014 3006 2999 2992 2985 2979 2973 2968 2962 2956 2951 2946 2941 2939 2934 2930 2927 2924 2923 2922 2922 2925 2929 2934 2941